| time (UTC) | temp C | wind direction | speed KPH | gust KPH | rain 1hr cm | rain 24hr cm | rain mn cm | humidity % | barometer mb |
| 20260505164424 | 19 | 353 | 1.6 | 1.6 | 0.00 | 0.00 | 0.00 | 49 | 1011.1 |
| 20260505163922 | 18 | 334 | 6.4 | 9.7 | 0.00 | 0.00 | 0.00 | 49 | 1011.0 |
| 20260505163421 | 18 | 300 | 3.2 | 4.8 | 0.00 | 0.00 | 0.00 | 49 | 1011.3 |
| 20260505162920 | 18 | 346 | 6.4 | 9.7 | 0.00 | 0.00 | 0.00 | 49 | 1011.2 |
| 20260505162415 | 18 | 348 | 6.4 | 9.7 | 0.00 | 0.00 | 0.00 | 49 | 1011.2 |
| 20260505161912 | 18 | 320 | 4.8 | 6.4 | 0.00 | 0.00 | 0.00 | 50 | 1011.1 |
| 20260505161409 | 17 | 353 | 3.2 | 4.8 | 0.00 | 0.00 | 0.00 | 51 | 1011.3 |
| 20260505160906 | 17 | 348 | 3.2 | 3.2 | 0.00 | 0.00 | 0.00 | 52 | 1011.4 |
| 20260505160404 | 17 | 322 | 6.4 | 6.4 | 0.00 | 0.00 | 0.00 | 52 | 1011.0 |
| 20260505153343 | 15 | 346 | 6.4 | 6.4 | 0.00 | 0.00 | 0.00 | 55 | 1011.3 |
| 20260505152840 | 15 | 305 | 8.0 | 9.7 | 0.00 | 0.00 | 0.00 | 54 | 1011.1 |
| 20260505152338 | 15 | 337 | 6.4 | 6.4 | 0.00 | 0.00 | 0.00 | 56 | 1011.1 |
| 20260505151837 | 14 | 332 | 9.7 | 9.7 | 0.00 | 0.00 | 0.00 | 57 | 1011.2 |
| 20260505151334 | 13 | 322 | 6.4 | 6.4 | 0.00 | 0.00 | 0.00 | 57 | 1011.0 |
| 20260505150831 | 14 | 341 | 8.0 | 9.7 | 0.00 | 0.00 | 0.00 | 57 | 1011.1 |
| 20260505150329 | 13 | 2 | 3.2 | 3.2 | 0.00 | 0.00 | 0.00 | 57 | 1011.0 |
| 20260505140258 | 11 | 318 | 4.8 | 4.8 | 0.00 | 0.00 | 0.00 | 63 | 1010.4 |
| 20260505130222 | 10 | 348 | 3.2 | 3.2 | 0.00 | 0.00 | 0.00 | 64 | 1010.0 |
| 20260505124712 | 11 | 329 | 4.8 | 6.4 | 0.00 | 0.00 | 0.00 | 63 | 1009.7 |
| 20260505124209 | 11 | 324 | 4.8 | 4.8 | 0.00 | 0.00 | 0.00 | 63 | 1009.8 |
| 20260505123705 | 11 | 317 | 3.2 | 4.8 | 0.00 | 0.00 | 0.00 | 62 | 1009.8 |
| 20260505123202 | 11 | 348 | 3.2 | 3.2 | 0.00 | 0.00 | 0.00 | 62 | 1009.6 |
| 20260505122659 | 11 | 309 | 3.2 | 3.2 | 0.00 | 0.00 | 0.00 | 62 | 1009.6 |
| 20260505122156 | 11 | 310 | 3.2 | 3.2 | 0.00 | 0.00 | 0.00 | 61 | 1009.7 |
| 20260505121652 | 11 | 355 | 6.4 | 9.7 | 0.00 | 0.00 | 0.00 | 62 | 1009.4 |
| 20260505121149 | 11 | 323 | 4.8 | 6.4 | 0.00 | 0.00 | 0.00 | 61 | 1009.4 |
| 20260505120645 | 11 | 337 | 3.2 | 4.8 | 0.00 | 0.00 | 0.00 | 61 | 1009.4 |
| 20260505120141 | 11 | 332 | 3.2 | 4.8 | 0.00 | 0.00 | 0.00 | 61 | 1009.3 |
| 20260505115635 | 11 | 325 | 4.8 | 4.8 | 0.00 | 0.00 | 0.00 | 61 | 1009.3 |
| 20260505115133 | 11 | 347 | 3.2 | 3.2 | 0.00 | 0.00 | 0.00 | 61 | 1009.2 |
| 20260505114630 | 11 | 322 | 6.4 | 9.7 | 0.00 | 0.00 | 0.00 | 61 | 1009.3 |
| 20260505114126 | 11 | 325 | 3.2 | 4.8 | 0.00 | 0.00 | 0.00 | 61 | 1009.1 |
| 20260505113623 | 11 | 326 | 3.2 | 3.2 | 0.00 | 0.00 | 0.00 | 60 | 1009.2 |
| 20260505113119 | 11 | 338 | 3.2 | 3.2 | 0.00 | 0.00 | 0.00 | 60 | 1009.1 |
| 20260505112615 | 12 | 347 | 6.4 | 11.3 | 0.00 | 0.00 | 0.00 | 59 | 1009.3 |
| 20260505112114 | 12 | 327 | 1.6 | 1.6 | 0.00 | 0.00 | 0.00 | 59 | 1009.2 |
| 20260505111608 | 12 | 340 | 6.4 | 4.8 | 0.00 | 0.00 | 0.00 | 58 | 1009.1 |
| 20260505111104 | 12 | 336 | 3.2 | 3.2 | 0.00 | 0.00 | 0.00 | 58 | 1009.1 |
| 20260505110600 | 12 | 303 | 6.4 | 6.4 | 0.00 | 0.00 | 0.00 | 59 | 1009.3 |
| 20260505102033 | 12 | 339 | 3.2 | 3.2 | 0.00 | 0.00 | 0.00 | 58 | 1008.8 |
| 20260505101532 | 12 | 319 | 3.2 | 3.2 | 0.00 | 0.00 | 0.00 | 58 | 1008.9 |
| 20260505101027 | 12 | 325 | 4.8 | 4.8 | 0.00 | 0.00 | 0.00 | 58 | 1008.8 |
| 20260505100525 | 12 | 326 | 4.8 | 4.8 | 0.00 | 0.00 | 0.00 | 58 | 1008.8 |
| 20260505100021 | 12 | 315 | 4.8 | 4.8 | 0.00 | 0.00 | 0.00 | 58 | 1008.8 |
| 20260505095517 | 12 | 289 | 4.8 | 6.4 | 0.00 | 0.00 | 0.00 | 57 | 1008.7 |
| 20260505095014 | 12 | 324 | 3.2 | 3.2 | 0.00 | 0.00 | 0.00 | 57 | 1008.7 |
| 20260505094510 | 12 | 333 | 3.2 | 3.2 | 0.00 | 0.00 | 0.00 | 57 | 1008.7 |
| 20260505094006 | 12 | 335 | 3.2 | 3.2 | 0.00 | 0.00 | 0.00 | 57 | 1008.5 |
| 20260505093503 | 12 | 342 | 4.8 | 4.8 | 0.00 | 0.00 | 0.00 | 57 | 1008.7 |
| 20260505093000 | 13 | 332 | 3.2 | 4.8 | 0.00 | 0.00 | 0.00 | 56 | 1008.7 |
| 20260505092458 | 13 | 354 | 3.2 | 3.2 | 0.00 | 0.00 | 0.00 | 55 | 1008.6 |
| 20260505091955 | 13 | 348 | 1.6 | 1.6 | 0.00 | 0.00 | 0.00 | 54 | 1008.6 |
| 20260505091453 | 13 | 325 | 1.6 | 1.6 | 0.00 | 0.00 | 0.00 | 54 | 1008.5 |
| 20260505090951 | 13 | 303 | 1.6 | 3.2 | 0.00 | 0.00 | 0.00 | 54 | 1008.6 |
| 20260505090449 | 13 | 296 | 1.6 | 3.2 | 0.00 | 0.00 | 0.00 | 54 | 1008.5 |
| 20260505085946 | 13 | 354 | 6.4 | 6.4 | 0.00 | 0.00 | 0.00 | 53 | 1008.5 |
| 20260505085443 | 13 | 327 | 3.2 | 3.2 | 0.00 | 0.00 | 0.00 | 54 | 1008.4 |
| 20260505084942 | 13 | 320 | 6.4 | 11.3 | 0.00 | 0.00 | 0.00 | 54 | 1008.4 |
| 20260505084440 | 13 | 330 | 4.8 | 4.8 | 0.00 | 0.00 | 0.00 | 54 | 1008.4 |
| 20260505083937 | 13 | 317 | 4.8 | 4.8 | 0.00 | 0.00 | 0.00 | 53 | 1008.3 |
| 20260505083434 | 13 | 309 | 6.4 | 9.7 | 0.00 | 0.00 | 0.00 | 53 | 1008.3 |
| 20260505082931 | 13 | 306 | 4.8 | 6.4 | 0.00 | 0.00 | 0.00 | 53 | 1008.3 |
| 20260505082426 | 13 | 342 | 3.2 | 3.2 | 0.00 | 0.00 | 0.00 | 53 | 1008.6 |
| 20260505081924 | 14 | 340 | 6.4 | 4.8 | 0.00 | 0.00 | 0.00 | 52 | 1008.5 |
| 20260505081421 | 14 | 345 | 1.6 | 1.6 | 0.00 | 0.00 | 0.00 | 52 | 1008.5 |
| 20260505080917 | 14 | 338 | 3.2 | 3.2 | 0.00 | 0.00 | 0.00 | 52 | 1008.6 |
| 20260505080413 | 14 | 341 | 1.6 | 3.2 | 0.00 | 0.00 | 0.00 | 52 | 1008.5 |
| 20260505075908 | 14 | 339 | 3.2 | 4.8 | 0.00 | 0.00 | 0.00 | 53 | 1008.6 |
| 20260505075405 | 14 | 324 | 3.2 | 3.2 | 0.00 | 0.00 | 0.00 | 53 | 1008.4 |
| 20260505074903 | 14 | 345 | 0.0 | 1.6 | 0.00 | 0.00 | 0.00 | 53 | 1008.6 |
| 20260505074400 | 13 | 343 | 3.2 | 3.2 | 0.00 | 0.00 | 0.00 | 54 | 1008.5 |
| 20260505073857 | 13 | 325 | 1.6 | 3.2 | 0.00 | 0.00 | 0.00 | 54 | 1008.4 |
| 20260505073355 | 14 | 343 | 1.6 | 1.6 | 0.00 | 0.00 | 0.00 | 53 | 1008.5 |
| 20260505072852 | 14 | 346 | 1.6 | 1.6 | 0.00 | 0.00 | 0.00 | 53 | 1008.4 |
| 20260505072348 | 14 | 331 | 4.8 | 4.8 | 0.00 | 0.00 | 0.00 | 53 | 1008.3 |
| 20260505071844 | 14 | 344 | 4.8 | 4.8 | 0.00 | 0.00 | 0.00 | 53 | 1008.6 |
| 20260505071341 | 14 | 332 | 4.8 | 4.8 | 0.00 | 0.00 | 0.00 | 52 | 1008.1 |
| 20260505070839 | 14 | 333 | 3.2 | 4.8 | 0.00 | 0.00 | 0.00 | 52 | 1008.0 |
| 20260505070335 | 14 | 337 | 1.6 | 1.6 | 0.00 | 0.00 | 0.00 | 52 | 1008.1 |
| 20260505065830 | 14 | 338 | 3.2 | 3.2 | 0.00 | 0.00 | 0.00 | 52 | 1008.0 |
| 20260505065327 | 14 | 338 | 0.0 | 1.6 | 0.00 | 0.00 | 0.00 | 53 | 1008.0 |
| 20260505064824 | 14 | 342 | 1.6 | 1.6 | 0.00 | 0.00 | 0.00 | 54 | 1007.8 |
| 20260505064321 | 14 | 342 | 1.6 | 1.6 | 0.00 | 0.00 | 0.00 | 54 | 1007.8 |
| 20260505063820 | 14 | 342 | 1.6 | 1.6 | 0.00 | 0.00 | 0.00 | 54 | 1007.9 |
| 20260505063315 | 14 | 342 | 1.6 | 1.6 | 0.00 | 0.00 | 0.00 | 54 | 1008.3 |
| 20260505062812 | 14 | 342 | 1.6 | 1.6 | 0.00 | 0.00 | 0.00 | 54 | 1008.0 |
| 20260505062310 | 15 | 342 | 3.2 | 3.2 | 0.00 | 0.00 | 0.00 | 53 | 1007.8 |
| 20260505061806 | 15 | 342 | 3.2 | 3.2 | 0.00 | 0.00 | 0.00 | 52 | 1008.0 |
| 20260505061304 | 15 | 341 | 1.6 | 1.6 | 0.00 | 0.00 | 0.00 | 51 | 1007.9 |
| 20260505060802 | 15 | 343 | 3.2 | 3.2 | 0.00 | 0.00 | 0.00 | 51 | 1008.0 |
| 20260505060258 | 15 | 350 | 1.6 | 1.6 | 0.00 | 0.00 | 0.00 | 51 | 1007.7 |
| 20260505055754 | 15 | 350 | 3.2 | 3.2 | 0.00 | 0.00 | 0.00 | 52 | 1007.8 |
| 20260505055250 | 15 | 350 | 1.6 | 1.6 | 0.00 | 0.00 | 0.00 | 53 | 1007.9 |
| 20260505054748 | 15 | 350 | 1.6 | 1.6 | 0.00 | 0.00 | 0.00 | 53 | 1007.9 |
| 20260505054245 | 15 | 352 | 1.6 | 1.6 | 0.00 | 0.00 | 0.00 | 54 | 1007.7 |
| 20260505053743 | 14 | 352 | 3.2 | 3.2 | 0.00 | 0.00 | 0.00 | 54 | 1007.8 |
| 20260505053239 | 14 | 353 | 1.6 | 1.6 | 0.00 | 0.00 | 0.00 | 54 | 1007.9 |
| 20260505052737 | 14 | 353 | 0.0 | 0.0 | 0.00 | 0.00 | 0.00 | 55 | 1007.8 |
| 20260505052233 | 15 | 356 | 3.2 | 3.2 | 0.00 | 0.00 | 0.00 | 54 | 1007.6 |
| 20260505051730 | 15 | 356 | 1.6 | 1.6 | 0.00 | 0.00 | 0.00 | 53 | 1007.8 |
| 20260505051228 | 15 | 356 | 0.0 | 0.0 | 0.00 | 0.00 | 0.00 | 52 | 1007.9 |
| 20260505050726 | 15 | 356 | 0.0 | 0.0 | 0.00 | 0.00 | 0.00 | 51 | 1007.9 |
| 20260505050225 | 15 | 356 | 0.0 | 0.0 | 0.00 | 0.00 | 0.00 | 51 | 1007.7 |
| 20260505041654 | 16 | 357 | 0.0 | 0.0 | 0.00 | 0.00 | 0.00 | 44 | 1007.7 |
| 20260505041152 | 17 | 357 | 0.0 | 0.0 | 0.00 | 0.00 | 0.00 | 44 | 1007.7 |
| 20260505040648 | 17 | 356 | 0.0 | 0.0 | 0.00 | 0.00 | 0.00 | 43 | 1007.5 |
| 20260505040146 | 17 | 357 | 0.0 | 0.0 | 0.00 | 0.00 | 0.00 | 42 | 1007.5 |
| 20260505035642 | 17 | 357 | 0.0 | 0.0 | 0.00 | 0.00 | 0.00 | 42 | 1007.3 |
| 20260505035138 | 17 | 356 | 0.0 | 0.0 | 0.00 | 0.00 | 0.00 | 41 | 1007.4 |
| 20260505034635 | 17 | 357 | 0.0 | 0.0 | 0.00 | 0.00 | 0.00 | 41 | 1007.3 |
| 20260505034132 | 18 | 357 | 0.0 | 0.0 | 0.00 | 0.00 | 0.00 | 41 | 1007.4 |
| 20260505033628 | 18 | 357 | 0.0 | 0.0 | 0.00 | 0.00 | 0.00 | 38 | 1007.2 |
| 20260505033127 | 19 | 357 | 0.0 | 0.0 | 0.00 | 0.00 | 0.00 | 37 | 1007.2 |
| 20260505032625 | 20 | 357 | 0.0 | 0.0 | 0.00 | 0.00 | 0.00 | 35 | 1007.2 |
| 20260505032121 | 20 | 356 | 3.2 | 3.2 | 0.00 | 0.00 | 0.00 | 34 | 1007.2 |
| 20260505031618 | 20 | 357 | 3.2 | 4.8 | 0.00 | 0.00 | 0.00 | 34 | 1007.2 |
| 20260505031114 | 20 | 357 | 3.2 | 3.2 | 0.00 | 0.00 | 0.00 | 33 | 1007.2 |
| 20260505030611 | 20 | 10 | 3.2 | 4.8 | 0.00 | 0.00 | 0.00 | 32 | 1006.8 |
| 20260505030107 | 20 | 19 | 0.0 | 0.0 | 0.00 | 0.00 | 0.00 | 32 | 1006.8 |
| 20260505025603 | 20 | 20 | 0.0 | 0.0 | 0.00 | 0.00 | 0.00 | 32 | 1007.1 |
| 20260505025102 | 21 | 20 | 0.0 | 0.0 | 0.00 | 0.00 | 0.00 | 32 | 1006.8 |
| 20260505024558 | 21 | 24 | 1.6 | 1.6 | 0.00 | 0.00 | 0.00 | 30 | 1006.8 |
| 20260505024056 | 21 | 26 | 0.0 | 0.0 | 0.00 | 0.00 | 0.00 | 30 | 1006.7 |
| 20260505023553 | 22 | 26 | 1.6 | 1.6 | 0.00 | 0.00 | 0.00 | 30 | 1006.6 |
| 20260505023051 | 22 | 26 | 3.2 | 1.6 | 0.00 | 0.00 | 0.00 | 30 | 1006.8 |
| 20260505022548 | 22 | 330 | 3.2 | 4.8 | 0.00 | 0.00 | 0.00 | 28 | 1006.7 |
| 20260505022045 | 22 | 307 | 6.4 | 6.4 | 0.00 | 0.00 | 0.00 | 27 | 1006.6 |
| 20260505021542 | 22 | 313 | 8.0 | 9.7 | 0.00 | 0.00 | 0.00 | 28 | 1006.5 |
| 20260505021039 | 23 | 5 | 4.8 | 6.4 | 0.00 | 0.00 | 0.00 | 28 | 1006.5 |
| 20260505020538 | 23 | 30 | 0.0 | 1.6 | 0.00 | 0.00 | 0.00 | 29 | 1006.3 |
| 20260505020035 | 23 | 56 | 1.6 | 3.2 | 0.00 | 0.00 | 0.00 | 28 | 1006.6 |
| 20260505015532 | 23 | 347 | 1.6 | 1.6 | 0.00 | 0.00 | 0.00 | 28 | 1006.3 |
| 20260505015029 | 23 | 347 | 3.2 | 3.2 | 0.00 | 0.00 | 0.00 | 28 | 1006.5 |
| 20260505014526 | 23 | 346 | 9.7 | 12.9 | 0.00 | 0.00 | 0.00 | 26 | 1006.4 |
| 20260505014023 | 23 | 293 | 8.0 | 11.3 | 0.00 | 0.00 | 0.00 | 26 | 1006.4 |
| 20260505013520 | 23 | 315 | 9.7 | 14.5 | 0.00 | 0.00 | 0.00 | 26 | 1006.5 |
| 20260505013018 | 23 | 336 | 8.0 | 11.3 | 0.00 | 0.00 | 0.00 | 26 | 1006.4 |
| 20260505012516 | 24 | 335 | 9.7 | 14.5 | 0.00 | 0.00 | 0.00 | 26 | 1006.5 |
| 20260505012012 | 24 | 301 | 11.3 | 12.9 | 0.00 | 0.00 | 0.00 | 26 | 1006.6 |
| 20260505011508 | 24 | 315 | 8.0 | 14.5 | 0.00 | 0.00 | 0.00 | 26 | 1006.7 |
| 20260505011005 | 24 | 313 | 8.0 | 9.7 | 0.00 | 0.00 | 0.00 | 26 | 1006.6 |
| 20260505010500 | 24 | 313 | 9.7 | 14.5 | 0.00 | 0.00 | 0.00 | 25 | 1006.6 |
| 20260505005957 | 25 | 344 | 9.7 | 11.3 | 0.00 | 0.00 | 0.00 | 25 | 1006.7 |
| 20260505005454 | 25 | 320 | 9.7 | 11.3 | 0.00 | 0.00 | 0.00 | 24 | 1006.5 |
| 20260505004951 | 25 | 339 | 4.8 | 6.4 | 0.00 | 0.00 | 0.00 | 25 | 1006.6 |
| 20260505004448 | 25 | 350 | 9.7 | 11.3 | 0.00 | 0.00 | 0.00 | 25 | 1006.6 |
| 20260505003945 | 25 | 291 | 12.9 | 14.5 | 0.00 | 0.00 | 0.00 | 25 | 1006.8 |
| 20260505003442 | 25 | 342 | 8.0 | 11.3 | 0.00 | 0.00 | 0.00 | 26 | 1006.5 |
| 20260505002938 | 25 | 323 | 9.7 | 11.3 | 0.00 | 0.00 | 0.00 | 26 | 1006.6 |
| 20260505002434 | 25 | 321 | 12.9 | 16.1 | 0.00 | 0.00 | 0.00 | 27 | 1006.7 |
| 20260505001933 | 25 | 325 | 8.0 | 9.7 | 0.00 | 0.00 | 0.00 | 27 | 1006.5 |
| 20260505001430 | 25 | 312 | 11.3 | 12.9 | 0.00 | 0.00 | 0.00 | 26 | 1006.6 |
| 20260505000927 | 25 | 345 | 6.4 | 6.4 | 0.00 | 0.00 | 0.00 | 28 | 1006.8 |
| 20260505000427 | 25 | 342 | 14.5 | 17.7 | 0.00 | 0.00 | 0.00 | 26 | 1006.8 |
| 20260504235921 | 25 | 314 | 6.4 | 9.7 | 0.00 | 0.00 | 0.00 | 25 | 1006.5 |
| 20260504235419 | 25 | 287 | 14.5 | 17.7 | 0.00 | 0.00 | 0.00 | 25 | 1006.6 |
| 20260504234915 | 25 | 332 | 12.9 | 14.5 | 0.00 | 0.00 | 0.00 | 26 | 1006.5 |
| 20260504234413 | 25 | 308 | 17.7 | 20.9 | 0.00 | 0.00 | 0.00 | 26 | 1006.7 |
| 20260504233909 | 25 | 329 | 11.3 | 14.5 | 0.00 | 0.00 | 0.00 | 26 | 1006.7 |
| 20260504233405 | 25 | 323 | 9.7 | 12.9 | 0.00 | 0.00 | 0.00 | 27 | 1006.7 |
| 20260504232902 | 25 | 325 | 12.9 | 14.5 | 0.00 | 0.00 | 0.00 | 26 | 1006.9 |
| 20260504232359 | 26 | 337 | 8.0 | 11.3 | 0.00 | 0.00 | 0.00 | 27 | 1006.5 |
| 20260504231855 | 25 | 323 | 6.4 | 6.4 | 0.00 | 0.00 | 0.00 | 27 | 1006.6 |
| 20260504231352 | 26 | 330 | 6.4 | 11.3 | 0.00 | 0.00 | 0.00 | 26 | 1006.9 |
| 20260504230848 | 26 | 327 | 8.0 | 9.7 | 0.00 | 0.00 | 0.00 | 26 | 1006.7 |
| 20260504230346 | 25 | 352 | 11.3 | 12.9 | 0.00 | 0.00 | 0.00 | 27 | 1006.9 |
| 20260504225845 | 26 | 327 | 6.4 | 6.4 | 0.00 | 0.00 | 0.00 | 25 | 1006.9 |
| 20260504225340 | 26 | 329 | 8.0 | 11.3 | 0.00 | 0.00 | 0.00 | 26 | 1006.8 |
| 20260504224838 | 26 | 327 | 9.7 | 11.3 | 0.00 | 0.00 | 0.00 | 27 | 1006.9 |
| 20260504224335 | 26 | 326 | 8.0 | 11.3 | 0.00 | 0.00 | 0.00 | 25 | 1006.7 |
| 20260504223832 | 25 | 354 | 4.8 | 4.8 | 0.00 | 0.00 | 0.00 | 24 | 1007.2 |
| 20260504223327 | 26 | 310 | 12.9 | 16.1 | 0.00 | 0.00 | 0.00 | 24 | 1007.1 |
| 20260504222824 | 26 | 299 | 9.7 | 12.9 | 0.00 | 0.00 | 0.00 | 24 | 1007.1 |
| 20260504222321 | 26 | 330 | 12.9 | 16.1 | 0.00 | 0.00 | 0.00 | 23 | 1006.9 |
| 20260504221820 | 26 | 293 | 6.4 | 6.4 | 0.00 | 0.00 | 0.00 | 24 | 1007.3 |
| 20260504221316 | 26 | 349 | 6.4 | 6.4 | 0.00 | 0.00 | 0.00 | 24 | 1007.2 |
| 20260504220813 | 26 | 325 | 8.0 | 11.3 | 0.00 | 0.00 | 0.00 | 23 | 1007.4 |
| 20260504220309 | 25 | 350 | 8.0 | 11.3 | 0.00 | 0.00 | 0.00 | 23 | 1007.3 |
| 20260504215807 | 25 | 337 | 11.3 | 12.9 | 0.00 | 0.00 | 0.00 | 22 | 1007.5 |
| 20260504215304 | 25 | 349 | 8.0 | 12.9 | 0.00 | 0.00 | 0.00 | 21 | 1007.5 |
| 20260504214759 | 26 | 275 | 11.3 | 16.1 | 0.00 | 0.00 | 0.00 | 21 | 1007.5 |
| 20260504214256 | 26 | 308 | 11.3 | 12.9 | 0.00 | 0.00 | 0.00 | 20 | 1007.5 |
| 20260504213753 | 26 | 335 | 11.3 | 14.5 | 0.00 | 0.00 | 0.00 | 21 | 1007.4 |
| 20260504213249 | 26 | 322 | 9.7 | 14.5 | 0.00 | 0.00 | 0.00 | 22 | 1007.4 |
| 20260504212746 | 25 | 311 | 16.1 | 17.7 | 0.00 | 0.00 | 0.00 | 21 | 1007.5 |
| 20260504212242 | 25 | 314 | 17.7 | 24.1 | 0.00 | 0.00 | 0.00 | 21 | 1007.7 |
| 20260504211740 | 25 | 332 | 12.9 | 16.1 | 0.00 | 0.00 | 0.00 | 21 | 1007.3 |
| 20260504211236 | 25 | 327 | 16.1 | 29.0 | 0.00 | 0.00 | 0.00 | 21 | 1007.5 |
| 20260504210734 | 25 | 326 | 17.7 | 24.1 | 0.00 | 0.00 | 0.00 | 22 | 1007.7 |
| 20260504210231 | 26 | 342 | 14.5 | 20.9 | 0.00 | 0.00 | 0.00 | 21 | 1007.5 |
| 20260504205728 | 25 | 333 | 14.5 | 16.1 | 0.00 | 0.00 | 0.00 | 22 | 1007.6 |
| 20260504205225 | 26 | 352 | 12.9 | 17.7 | 0.00 | 0.00 | 0.00 | 22 | 1007.5 |
| 20260504204723 | 26 | 331 | 9.7 | 12.9 | 0.00 | 0.00 | 0.00 | 23 | 1007.7 |
| 20260504204221 | 26 | 24 | 8.0 | 9.7 | 0.00 | 0.00 | 0.00 | 26 | 1007.5 |
| 20260504203720 | 27 | 336 | 9.7 | 12.9 | 0.00 | 0.00 | 0.00 | 26 | 1007.7 |
| 20260504203217 | 27 | 14 | 3.2 | 3.2 | 0.00 | 0.00 | 0.00 | 28 | 1007.5 |
| 20260504202717 | 26 | 0 | 1.6 | 1.6 | 0.00 | 0.00 | 0.00 | 30 | 1007.5 |
| 20260504202215 | 26 | 345 | 1.6 | 1.6 | 0.00 | 0.00 | 0.00 | 27 | 1007.6 |
| 20260504201712 | 26 | 314 | 4.8 | 9.7 | 0.00 | 0.00 | 0.00 | 28 | 1007.6 |
| 20260504201209 | 26 | 333 | 3.2 | 4.8 | 0.00 | 0.00 | 0.00 | 30 | 1007.7 |
| 20260504200707 | 26 | 17 | 4.8 | 4.8 | 0.00 | 0.00 | 0.00 | 29 | 1007.5 |
| 20260504200203 | 26 | 8 | 6.4 | 9.7 | 0.00 | 0.00 | 0.00 | 30 | 1007.7 |
| 20260504195659 | 26 | 350 | 4.8 | 6.4 | 0.00 | 0.00 | 0.00 | 32 | 1007.8 |
| 20260504195155 | 25 | 351 | 1.6 | 1.6 | 0.00 | 0.00 | 0.00 | 30 | 1007.8 |
| 20260504194652 | 26 | 358 | 3.2 | 3.2 | 0.00 | 0.00 | 0.00 | 31 | 1007.6 |
| 20260504194148 | 26 | 342 | 4.8 | 3.2 | 0.00 | 0.00 | 0.00 | 30 | 1007.9 |
| 20260504193645 | 26 | 359 | 1.6 | 4.8 | 0.00 | 0.00 | 0.00 | 33 | 1008.0 |
| 20260504193143 | 25 | 11 | 1.6 | 1.6 | 0.00 | 0.00 | 0.00 | 34 | 1008.1 |
| 20260504192640 | 25 | 335 | 1.6 | 3.2 | 0.00 | 0.00 | 0.00 | 33 | 1007.9 |
| 20260504192138 | 25 | 350 | 3.2 | 4.8 | 0.00 | 0.00 | 0.00 | 36 | 1008.0 |
| 20260504191636 | 24 | 332 | 3.2 | 4.8 | 0.00 | 0.00 | 0.00 | 39 | 1008.1 |
| 20260504191132 | 23 | 340 | 6.4 | 6.4 | 0.00 | 0.00 | 0.00 | 39 | 1008.0 |
| 20260504190628 | 24 | 342 | 6.4 | 6.4 | 0.00 | 0.00 | 0.00 | 39 | 1008.3 |
| 20260504190125 | 24 | 11 | 4.8 | 4.8 | 0.00 | 0.00 | 0.00 | 38 | 1008.3 |
| 20260504185622 | 23 | 49 | 1.6 | 1.6 | 0.00 | 0.00 | 0.00 | 38 | 1008.4 |
| 20260504185118 | 23 | 3 | 1.6 | 3.2 | 0.00 | 0.00 | 0.00 | 38 | 1008.1 |
| 20260504184614 | 24 | 24 | 1.6 | 1.6 | 0.00 | 0.00 | 0.00 | 38 | 1008.1 |
| 20260504184109 | 23 | 35 | 4.8 | 4.8 | 0.00 | 0.00 | 0.00 | 38 | 1008.4 |
| 20260504183607 | 23 | 126 | 1.6 | 1.6 | 0.00 | 0.00 | 0.00 | 39 | 1008.5 |
| 20260504183105 | 23 | 113 | 1.6 | 1.6 | 0.00 | 0.00 | 0.00 | 39 | 1008.5 |
| 20260504182602 | 23 | 16 | 3.2 | 3.2 | 0.00 | 0.00 | 0.00 | 39 | 1008.5 |
| 20260504182059 | 22 | 28 | 1.6 | 1.6 | 0.00 | 0.00 | 0.00 | 42 | 1008.5 |
| 20260504181556 | 22 | 17 | 4.8 | 4.8 | 0.00 | 0.00 | 0.00 | 41 | 1008.6 |
| 20260504181054 | 22 | 126 | 1.6 | 3.2 | 0.00 | 0.00 | 0.00 | 42 | 1008.5 |
| 20260504180553 | 21 | 79 | 1.6 | 1.6 | 0.00 | 0.00 | 0.00 | 45 | 1008.6 |
| 20260504180051 | 21 | 95 | 1.6 | 3.2 | 0.00 | 0.00 | 0.00 | 42 | 1008.6 |
| 20260504175548 | 21 | 142 | 0.0 | 0.0 | 0.00 | 0.00 | 0.00 | 42 | 1008.8 |
| 20260504175044 | 20 | 156 | 1.6 | 3.2 | 0.00 | 0.00 | 0.00 | 44 | 1008.7 |
| 20260504174543 | 20 | 152 | 1.6 | 3.2 | 0.00 | 0.00 | 0.00 | 44 | 1008.9 |
| 20260504174039 | 20 | 139 | 3.2 | 3.2 | 0.00 | 0.00 | 0.00 | 45 | 1009.0 |
| 20260504173536 | 20 | 146 | 3.2 | 3.2 | 0.00 | 0.00 | 0.00 | 46 | 1009.0 |
| 20260504173034 | 20 | 149 | 3.2 | 1.6 | 0.00 | 0.00 | 0.00 | 46 | 1009.1 |
| 20260504172530 | 18 | 60 | 1.6 | 1.6 | 0.00 | 0.00 | 0.00 | 47 | 1009.0 |
| 20260504172026 | 20 | 16 | 4.8 | 4.8 | 0.00 | 0.00 | 0.00 | 43 | 1009.0 |
| 20260504171523 | 19 | 133 | 1.6 | 1.6 | 0.00 | 0.00 | 0.00 | 45 | 1009.2 |
| 20260504171020 | 18 | 133 | 0.0 | 0.0 | 0.00 | 0.00 | 0.00 | 46 | 1009.2 |
| 20260504170516 | 19 | 132 | 4.8 | 4.8 | 0.00 | 0.00 | 0.00 | 45 | 1009.0 |